Flag for Norway Weather past 2 weeks in Langesund, Norway

Now
57 °F

Cool.


Feels Like: 57 °F
Forecast: 52 / 65 °F
Wind: 2 mph from Northwest

Location: Jomfruland Fyr

Current Time: Jul 30, 2015 at 8:16:59 AM

Latest Report: Jul 30, 2015 at 7:00 AM


Visibility: N/A

Pressure: 29.47 "Hg

Humidity: 89%

Dew point: 53 °F

Location of LangesundLocation

Historic Weather in Langesund — Graph

°F

Langesund temperature yesterday

Maximum temperature yesterday: 61 °F (at 5:00 PM)
Minimum temperature yesterday: 57 °F (at 1:00 AM)
Average temperature yesterday: 58 °F

Past Weeks' High & Low Weather Summary

 TemperatureHumidityPressure
High70 °F (Jul 16, 6:00 PM)95% (Jul 18, 4:00 AM)30.07 "Hg (Jul 18, 4:00 AM)
Low53 °F (Jul 26, 6:00 AM)24% (Jul 16, 6:00 PM)29.35 "Hg (Jul 29, 8:00 AM)
Average59 °F73%29.67 "Hg
* Reported Jul 15 7:00 AM — Jul 30 7:00 AM, Langesund, Weather by CustomWeather, © 2015

Note: Actual official high and low records may vary slightly from our data, if they occured in-between our weather recording intervals... More about our weather records

Advertising

Langesund weather history for previous 24 hours

 ConditionsComfort  
Time TempWeatherWind HumidityBarometerVisibility
7:00 AM
Thu, Jul 30
57 °FCool.2 mph89%29.47 "HgN/A
6:00 AM56 °FCool.2 mph90%29.47 "HgN/A
5:00 AM56 °FCool.2 mph92%29.47 "HgN/A
4:00 AM57 °FCool.2 mph91%29.47 "HgN/A
3:00 AM57 °FCool.3 mph93%29.47 "HgN/A
2:00 AM57 °FCool.3 mph94%29.47 "HgN/A
1:00 AM56 °FCool.2 mph94%29.47 "HgN/A
12:00 AM57 °FCool.2 mph94%29.44 "HgN/A
11:00 PM
Wed, Jul 29
57 °FCool.2 mph93%29.44 "HgN/A
10:00 PM57 °FCool.2 mph92%29.44 "HgN/A
9:00 PM58 °FCool.1 mph91%29.41 "HgN/A
8:00 PM57 °FCool.1 mph91%29.41 "HgN/A
7:00 PM57 °FCool.1 mph92%29.41 "HgN/A
6:00 PM59 °FCool.3 mph89%29.38 "HgN/A
5:00 PM61 °FCool.2 mph89%29.38 "HgN/A
4:00 PM60 °FCool.2 mph92%29.38 "HgN/A
3:00 PM59 °FCool.2 mph94%29.35 "HgN/A
2:00 PM59 °FCool.3 mph94%29.35 "HgN/A
1:00 PM59 °FCool.6 mph93%29.35 "HgN/A
12:00 PM58 °FCool.6 mph93%29.35 "HgN/A
11:00 AM59 °FCool.7 mph92%29.35 "HgN/A
10:00 AM59 °FCool.6 mph91%29.35 "HgN/A
9:00 AM59 °FCool.6 mph91%29.35 "HgN/A
8:00 AM58 °FCool.7 mph93%29.35 "HgN/A
Weather by CustomWeather, © 2015

See weather overviewHow to use our weather pages